This is the latest recevied weather packets stored in our database for station/object KB1FPD. If no packets are shown the sender has not sent any weather packets the latest 10 day(s).
| Time | Temp. | Humidity | Pressure | Rain* | Wind** | Luminosity | Snow |
|---|---|---|---|---|---|---|---|
| 1778077356 | 14.44° C | 94% | 1009.4 hPa | 1.78 mm | - | - | - |
| 1778077055 | 13.89° C | 93% | 1009.4 hPa | 1.78 mm | - | - | - |
| 1778076754 | 13.89° C | 93% | 1009.5 hPa | 1.78 mm | - | - | - |
| 1778076456 | 13.89° C | 93% | 1009.4 hPa | 1.52 mm | - | - | - |
| 1778076155 | 13.89° C | 93% | 1009.4 hPa | 1.78 mm | - | - | - |
| 1778075854 | 13.89° C | 93% | 1009.2 hPa | 1.52 mm | - | - | - |
| 1778075554 | 13.89° C | 93% | 1009.2 hPa | 1.78 mm | - | - | - |
| 1778075255 | 13.89° C | 93% | 1009.1 hPa | 1.78 mm | - | - | - |
| 1778074957 | 13.89° C | 93% | 1009.3 hPa | 1.78 mm | - | - | - |
| 1778074654 | 13.89° C | 93% | 1009.1 hPa | 1.78 mm | - | - | - |
| 1778074356 | 13.89° C | 93% | 1009.1 hPa | 2.03 mm | - | - | - |
| 1778074055 | 14.44° C | 93% | 1009.1 hPa | 1.78 mm | - | - | - |
| 1778073754 | 14.44° C | 93% | 1009.2 hPa | 1.52 mm | - | - | - |
| 1778073455 | 14.44° C | 92% | 1009.3 hPa | 1.78 mm | - | - | - |
| 1778073154 | 14.44° C | 92% | 1009.4 hPa | 1.52 mm | - | - | - |
| 1778072854 | 14.44° C | 92% | 1009.4 hPa | 1.52 mm | - | - | - |
| 1778072555 | 14.44° C | 92% | 1009.4 hPa | 1.52 mm | - | - | - |
| 1778072255 | 14.44° C | 92% | 1009.4 hPa | 1.78 mm | - | - | - |
| 1778071957 | 14.44° C | 92% | 1009.3 hPa | 1.52 mm | - | - | - |
| 1778071655 | 14.44° C | 92% | 1009.5 hPa | 1.52 mm | - | - | - |
| 1778071360 | 14.44° C | 92% | 1009.5 hPa | 1.52 mm | - | - | - |
| 1778071056 | 14.44° C | 92% | 1009.4 hPa | 1.52 mm | - | - | - |
| 1778070750 | 14.44° C | 91% | 1009.2 hPa | 1.27 mm | - | - | - |
| 1778070449 | 14.44° C | 91% | 1009.3 hPa | 1.27 mm | - | - | - |
| 1778070153 | 14.44° C | 91% | 1009.4 hPa | 1.52 mm | - | - | - |
* Rain latest hour (hover to see other rain measurements)
** Current wind speed in m/s (hover to see current wind gust speed)